,,,PA_Meas_PMT16A,,PR_Meas_QMR101_102,,RH_Meas_QMH101,,SR_Meas_QMS101,,TA_Meas_QMH101,,GenWind,,GenWind,
date,time,status,PA,status,PR,status,RH,status,SR,status,TA,status,DirAvg,status,SpdAvg,
2010-09-23, 00:00:05,VALID,999.908,VALID,0,VALID,90.9451,VALID,0,VALID,23.6232,VALID,45,VALID,0.553125,
2010-09-23, 00:01:05,VALID,999.87,VALID,0,VALID,90.968,VALID,0,VALID,23.5628,VALID,45,VALID,0.217578,
2010-09-23, 00:02:05,VALID,999.833,VALID,0,VALID,90.968,VALID,0,VALID,23.5451,VALID,45,VALID,0.111328,
2010-09-23, 00:03:05,VALID,999.787,VALID,0,VALID,91.0595,VALID,0,VALID,23.5256,VALID,45,VALID,0.4375,
2010-09-23, 00:04:04,VALID,999.752,VALID,0,VALID,91.2197,VALID,0,VALID,23.4848,VALID,45,VALID,0.182422,
2010-09-23, 00:05:04,VALID,999.74,VALID,0,VALID,91.4944,VALID,0,VALID,23.5256,VALID,45,VALID,0.266016,
2010-09-23, 00:06:04,VALID,999.747,VALID,0,VALID,91.6699,VALID,0,VALID,23.5451,VALID,45,VALID,0.408984,
2010-09-23, 00:07:04,VALID,999.753,VALID,0,VALID,91.7691,VALID,0,VALID,23.5433,VALID,45,VALID,0.326172,
2010-09-23, 00:08:04,VALID,999.775,VALID,0,VALID,91.7233,VALID,0,VALID,23.5841,VALID,45,VALID,0.348047,
2010-09-23, 00:09:04,VALID,999.77,VALID,0,VALID,91.5936,VALID,0,VALID,23.6036,VALID,45,VALID,0.297266,
2010-09-23, 00:10:04,VALID,999.782,VALID,0,VALID,91.4105,VALID,0,VALID,23.6036,VALID,45,VALID,0.135937,
2010-09-23, 00:11:04,VALID,999.756,VALID,0,VALID,91.2655,VALID,0,VALID,23.5841,VALID,45,VALID,0.325391,
2010-09-23, 00:12:04,VALID,999.756,VALID,0,VALID,91.2121,VALID,0,VALID,23.5628,VALID,45,VALID,0.730469,
2010-09-23, 00:13:04,VALID,999.762,VALID,0,VALID,91.2884,VALID,0,VALID,23.5841,VALID,5,VALID,0.916016,
2010-09-23, 00:14:04,VALID,999.738,VALID,0,VALID,91.3571,VALID,0,VALID,23.5628,VALID,5,VALID,0.783984,
2010-09-23, 00:15:04,VALID,999.733,VALID,0,VALID,91.4486,VALID,0,VALID,23.5841,VALID,5,VALID,0.619141,
2010-09-23, 00:16:04,VALID,999.736,VALID,0,VALID,91.4105,VALID,0,VALID,23.5238,VALID,5,VALID,0.521094,
2010-09-23, 00:17:04,VALID,999.713,VALID,0,VALID,91.3647,VALID,0,VALID,23.5043,VALID,5,VALID,0.600781,
2010-09-23, 00:18:04,VALID,999.731,VALID,0,VALID,91.4105,VALID,0,VALID,23.5061,VALID,5,VALID,0.679297,
2010-09-23, 00:19:04,VALID,999.706,VALID,0,VALID,91.5707,VALID,0,VALID,23.4866,VALID,5,VALID,0.742578,
2010-09-23, 00:20:04,VALID,999.696,VALID,0,VALID,91.7309,VALID,0,VALID,23.4866,VALID,344,VALID,0.747656,
2010-09-23, 00:21:04,VALID,999.699,VALID,0,VALID,91.8225,VALID,0,VALID,23.4866,VALID,316,VALID,0.641016,
2010-09-23, 00:22:04,VALID,999.717,VALID,0,VALID,91.8606,VALID,0,VALID,23.4671,VALID,311,VALID,0.404687,
2010-09-23, 00:23:04,VALID,999.72,VALID,0,VALID,91.8988,VALID,0,VALID,23.4263,VALID,311,VALID,0.332422,
2010-09-23, 00:24:04,VALID,999.746,VALID,0,VALID,91.9903,VALID,0,VALID,23.4671,VALID,311,VALID,0.332422,
2010-09-23, 00:25:04,VALID,999.799,VALID,0,VALID,92.0743,VALID,0,VALID,23.4866,VALID,311,VALID,0.341406,
2010-09-23, 00:26:04,VALID,999.866,VALID,0,VALID,92.1124,VALID,0,VALID,23.5061,VALID,311,VALID,0.422266,
2010-09-23, 00:27:04,VALID,999.886,VALID,0,VALID,92.1429,VALID,0,VALID,23.5061,VALID,311,VALID,0.525781,
2010-09-23, 00:28:04,VALID,999.884,VALID,0,VALID,92.1277,VALID,0,VALID,23.5256,VALID,311,VALID,0.341797,
2010-09-23, 00:29:04,VALID,999.908,VALID,0,VALID,92.1048,VALID,0,VALID,23.5256,VALID,311,VALID,0.186719,
2010-09-23, 00:30:04,VALID,999.935,VALID,0,VALID,92.1048,VALID,0,VALID,23.5061,VALID,311,VALID,0.323828,
2010-09-23, 00:31:04,VALID,999.917,VALID,0,VALID,92.1353,VALID,0,VALID,23.5061,VALID,25,VALID,0.749609,
2010-09-23, 00:32:04,VALID,999.956,VALID,0,VALID,92.0971,VALID,0,VALID,23.5061,VALID,62,VALID,1.20195,
2010-09-23, 00:33:04,VALID,999.93,VALID,0,VALID,91.9064,VALID,0,VALID,23.4493,VALID,67,VALID,1.40508,
2010-09-23, 00:34:04,VALID,999.91,VALID,0,VALID,91.8072,VALID,0,VALID,23.4475,VALID,56,VALID,1.1707,
2010-09-23, 00:35:04,VALID,999.869,VALID,0,VALID,91.7233,VALID,0,VALID,23.428,VALID,56,VALID,1.00469,
2010-09-23, 00:36:04,VALID,999.835,VALID,0,VALID,91.7691,VALID,0,VALID,23.4475,VALID,55,VALID,1.15586,
2010-09-23, 00:37:04,VALID,999.799,VALID,0,VALID,91.8759,VALID,0,VALID,23.4458,VALID,56,VALID,1.17344,
2010-09-23, 00:38:04,VALID,999.78,VALID,0,VALID,91.8759,VALID,0,VALID,23.4458,VALID,62,VALID,1.17539,
2010-09-23, 00:39:04,VALID,999.741,VALID,0,VALID,91.8683,VALID,0,VALID,23.4653,VALID,59,VALID,1.15391,
2010-09-23, 00:40:04,VALID,999.692,VALID,0,VALID,91.8911,VALID,0,VALID,23.4866,VALID,59,VALID,1.20703,
2010-09-23, 00:41:04,VALID,999.675,VALID,0,VALID,91.9064,VALID,0,VALID,23.4653,VALID,61,VALID,1.09453,
2010-09-23, 00:42:04,VALID,999.628,VALID,0,VALID,91.9369,VALID,0,VALID,23.4866,VALID,65,VALID,0.889844,
2010-09-23, 00:43:04,VALID,999.592,VALID,0,VALID,91.9751,VALID,0,VALID,23.4671,VALID,72,VALID,0.569531,
2010-09-23, 00:44:04,VALID,999.545,VALID,0,VALID,91.998,VALID,0,VALID,23.4671,VALID,72,VALID,0.447266,
2010-09-23, 00:45:04,VALID,999.525,VALID,0,VALID,92.0209,VALID,0,VALID,23.4458,VALID,72,VALID,0.237891,
2010-09-23, 00:46:04,VALID,999.525,VALID,0,VALID,92.0056,VALID,0,VALID,23.4458,VALID,72,VALID,0,
2010-09-23, 00:47:04,VALID,999.517,VALID,0,VALID,91.9674,VALID,0,VALID,23.428,VALID,72,VALID,0.0328125,
2010-09-23, 00:48:04,VALID,999.495,VALID,0,VALID,91.9903,VALID,0,VALID,23.428,VALID,72,VALID,0.114063,
2010-09-23, 00:49:04,VALID,999.502,VALID,0,VALID,92.0514,VALID,0,VALID,23.4475,VALID,72,VALID,0.162109,
2010-09-23, 00:50:04,VALID,999.453,VALID,0,VALID,92.0971,VALID,0,VALID,23.4475,VALID,72,VALID,0.0140625,
2010-09-23, 00:51:04,VALID,999.48,VALID,0,VALID,92.1048,VALID,0,VALID,23.428,VALID,72,VALID,0.242969,
2010-09-23, 00:52:04,VALID,999.448,VALID,0,VALID,92.12,VALID,0,VALID,23.428,VALID,72,VALID,0.298047,
2010-09-23, 00:53:04,VALID,999.471,VALID,0,VALID,92.1124,VALID,0,VALID,23.4085,VALID,72,VALID,0.421094,
2010-09-23, 00:54:04,VALID,999.448,VALID,0,VALID,92.1277,VALID,0,VALID,23.4085,VALID,72,VALID,0.45625,
2010-09-23, 00:55:04,VALID,999.441,VALID,0,VALID,92.0285,VALID,0,VALID,23.3677,VALID,96,VALID,0.637891,
2010-09-23, 00:56:04,VALID,999.43,VALID,0,VALID,91.9827,VALID,0,VALID,23.3695,VALID,105,VALID,0.417188,
2010-09-23, 00:57:04,VALID,999.418,VALID,0,VALID,91.9598,VALID,0,VALID,23.35,VALID,105,VALID,0.202344,
2010-09-23, 00:58:04,VALID,999.429,VALID,0,VALID,91.9217,VALID,0,VALID,23.3305,VALID,105,VALID,0.0792969,
2010-09-23, 00:59:04,VALID,999.44,VALID,0,VALID,91.914,VALID,0,VALID,23.311,VALID,105,VALID,0.491797,
2010-09-23, 01:00:04,VALID,999.432,VALID,0,VALID,92.0743,VALID,0,VALID,23.35,VALID,66,VALID,0.74375,
2010-09-23, 01:01:04,VALID,999.475,VALID,0,VALID,92.1887,VALID,0,VALID,23.3695,VALID,33,VALID,1.08359,
2010-09-23, 01:02:04,VALID,999.494,VALID,0,VALID,92.1963,VALID,0,VALID,23.3695,VALID,33,VALID,1.0582,
2010-09-23, 01:03:04,VALID,999.534,VALID,0,VALID,92.1963,VALID,0,VALID,23.3695,VALID,33,VALID,1.1582,
2010-09-23, 01:04:04,VALID,999.562,VALID,0,VALID,92.1124,VALID,0,VALID,23.35,VALID,38,VALID,1.14883,
2010-09-23, 01:05:04,VALID,999.618,VALID,0,VALID,92.0285,VALID,0,VALID,23.311,VALID,37,VALID,1.27813,
2010-09-23, 01:06:04,VALID,999.618,VALID,0,VALID,91.9598,VALID,0,VALID,23.2915,VALID,37,VALID,1.26367,
2010-09-23, 01:07:04,VALID,999.582,VALID,0,VALID,92.0285,VALID,0,VALID,23.2915,VALID,42,VALID,1.38398,
2010-09-23, 01:08:04,VALID,999.531,VALID,0,VALID,92.1353,VALID,0,VALID,23.2915,VALID,36,VALID,1.22617,
2010-09-23, 01:09:04,VALID,999.522,VALID,0,VALID,92.1811,VALID,0,VALID,23.2915,VALID,32,VALID,1.20781,
2010-09-23, 01:10:04,VALID,999.469,VALID,0,VALID,92.2116,VALID,0,VALID,23.2915,VALID,23,VALID,0.780469,
2010-09-23, 01:11:04,VALID,999.443,VALID,0,VALID,92.2268,VALID,0,VALID,23.2719,VALID,16,VALID,0.544922,
2010-09-23, 01:12:04,VALID,999.439,VALID,0,VALID,92.2497,VALID,0,VALID,23.2312,VALID,12,VALID,0.467578,
2010-09-23, 01:13:04,VALID,999.477,VALID,0,VALID,92.265,VALID,0,VALID,23.2524,VALID,12,VALID,0,
2010-09-23, 01:14:04,VALID,999.508,VALID,0,VALID,92.2497,VALID,0,VALID,23.2329,VALID,12,VALID,0.136719,
2010-09-23, 01:15:04,VALID,999.53,VALID,0,VALID,92.2803,VALID,0,VALID,23.2134,VALID,12,VALID,0.418359,
2010-09-23, 01:16:04,VALID,999.479,VALID,0,VALID,92.3184,VALID,0,VALID,23.2134,VALID,51,VALID,0.691797,
2010-09-23, 01:17:04,VALID,999.515,VALID,0,VALID,92.3947,VALID,0,VALID,23.2524,VALID,95,VALID,0.969531,
2010-09-23, 01:18:04,VALID,999.504,VALID,0,VALID,92.4634,VALID,0,VALID,23.2719,VALID,95,VALID,0.71875,
2010-09-23, 01:19:04,VALID,999.455,VALID,0,VALID,92.4557,VALID,0,VALID,23.2915,VALID,95,VALID,0.764844,
2010-09-23, 01:20:04,VALID,999.43,VALID,0,VALID,92.4176,VALID,0,VALID,23.2915,VALID,95,VALID,0.586719,
2010-09-23, 01:21:04,VALID,999.421,VALID,0,VALID,92.3566,VALID,0,VALID,23.2719,VALID,95,VALID,0.420703,
2010-09-23, 01:22:04,VALID,999.412,VALID,0,VALID,92.2879,VALID,0,VALID,23.2719,VALID,95,VALID,0.126563,
2010-09-23, 01:23:04,VALID,999.42,VALID,0,VALID,92.2421,VALID,0,VALID,23.2719,VALID,95,VALID,0,
2010-09-23, 01:24:04,VALID,999.435,VALID,0,VALID,92.2345,VALID,0,VALID,23.2719,VALID,95,VALID,0.132422,
2010-09-23, 01:25:04,VALID,999.45,VALID,0,VALID,92.1887,VALID,0,VALID,23.2524,VALID,95,VALID,0.273438,
2010-09-23, 01:26:04,VALID,999.473,VALID,0,VALID,92.2192,VALID,0,VALID,23.2524,VALID,95,VALID,0.504687,
2010-09-23, 01:27:04,VALID,999.497,VALID,0,VALID,92.2955,VALID,0,VALID,23.2719,VALID,94,VALID,0.670703,
2010-09-23, 01:28:04,VALID,999.502,VALID,0,VALID,92.3642,VALID,0,VALID,23.311,VALID,66,VALID,0.769922,
2010-09-23, 01:29:04,VALID,999.523,VALID,0,VALID,92.3718,VALID,0,VALID,23.35,VALID,66,VALID,0.899219,
2010-09-23, 01:30:04,VALID,999.51,VALID,0,VALID,92.3337,VALID,0,VALID,23.3677,VALID,66,VALID,0.74375,
2010-09-23, 01:31:04,VALID,999.511,VALID,0,VALID,92.2268,VALID,0,VALID,23.4085,VALID,76,VALID,0.872266,
2010-09-23, 01:32:04,VALID,999.479,VALID,0,VALID,92.1429,VALID,0,VALID,23.4475,VALID,84,VALID,0.749609,
2010-09-23, 01:33:04,VALID,999.444,VALID,0,VALID,91.998,VALID,0,VALID,23.4475,VALID,84,VALID,0.379687,
2010-09-23, 01:34:04,VALID,999.408,VALID,0,VALID,91.8301,VALID,0,VALID,23.4671,VALID,84,VALID,0.205469,
2010-09-23, 01:35:04,VALID,999.378,VALID,0,VALID,91.708,VALID,0,VALID,23.4475,VALID,84,VALID,0.495313,
2010-09-23, 01:36:04,VALID,999.322,VALID,0,VALID,91.6623,VALID,0,VALID,23.4475,VALID,84,VALID,0.335156,
2010-09-23, 01:37:04,VALID,999.324,VALID,0,VALID,91.6394,VALID,0,VALID,23.4458,VALID,86,VALID,0.420703,
2010-09-23, 01:38:04,VALID,999.344,VALID,0,VALID,91.7004,VALID,0,VALID,23.4866,VALID,155,VALID,0.782812,
2010-09-23, 01:39:04,VALID,999.319,VALID,0,VALID,91.6851,VALID,0,VALID,23.5256,VALID,155,VALID,0.533594,
2010-09-23, 01:40:04,VALID,999.337,VALID,0,VALID,91.502,VALID,0,VALID,23.5451,VALID,155,VALID,0.616797,
2010-09-23, 01:41:04,VALID,999.346,VALID,0,VALID,91.2503,VALID,0,VALID,23.5646,VALID,155,VALID,0.478906,
2010-09-23, 01:42:04,VALID,999.319,VALID,0,VALID,90.9985,VALID,0,VALID,23.5841,VALID,155,VALID,0.334375,
2010-09-23, 01:43:04,VALID,999.316,VALID,0,VALID,90.7238,VALID,0,VALID,23.6036,VALID,146,VALID,0.671484,
2010-09-23, 01:44:04,VALID,999.321,VALID,0,VALID,90.4186,VALID,0,VALID,23.6445,VALID,146,VALID,0.754297,
2010-09-23, 01:45:04,VALID,999.317,VALID,0,VALID,90.1974,VALID,0,VALID,23.6214,VALID,148,VALID,0.743359,
2010-09-23, 01:46:04,VALID,999.316,VALID,0,VALID,89.9532,VALID,0,VALID,23.6817,VALID,148,VALID,0.899219,
2010-09-23, 01:47:04,VALID,999.319,VALID,0,VALID,89.7396,VALID,0,VALID,23.7012,VALID,156,VALID,0.691016,
2010-09-23, 01:48:04,VALID,999.296,VALID,0,VALID,89.6175,VALID,0,VALID,23.7189,VALID,154,VALID,0.796484,
2010-09-23, 01:49:04,VALID,999.269,VALID,0,VALID,89.4726,VALID,0,VALID,23.7402,VALID,154,VALID,0.474219,
2010-09-23, 01:50:04,VALID,999.258,VALID,0,VALID,89.3886,VALID,0,VALID,23.7597,VALID,154,VALID,0.806641,
2010-09-23, 01:51:04,VALID,999.226,VALID,0,VALID,89.2894,VALID,0,VALID,23.7793,VALID,154,VALID,0.646484,
2010-09-23, 01:52:04,VALID,999.211,VALID,0,VALID,89.2284,VALID,0,VALID,23.7988,VALID,154,VALID,0.460156,
2010-09-23, 01:53:04,VALID,999.183,VALID,0,VALID,89.175,VALID,0,VALID,23.7793,VALID,154,VALID,0.458984,
2010-09-23, 01:54:04,VALID,999.164,VALID,0,VALID,89.2284,VALID,0,VALID,23.7579,VALID,154,VALID,0.541016,
2010-09-23, 01:55:04,VALID,999.128,VALID,0,VALID,89.3047,VALID,0,VALID,23.7579,VALID,157,VALID,0.728906,
2010-09-23, 01:56:04,VALID,999.127,VALID,0,VALID,89.2208,VALID,0,VALID,23.7988,VALID,155,VALID,1.12812,
2010-09-23, 01:57:04,VALID,999.118,VALID,0,VALID,89.0148,VALID,0,VALID,23.797,VALID,138,VALID,0.753516,
2010-09-23, 01:58:04,VALID,999.107,VALID,0,VALID,88.8393,VALID,0,VALID,23.8573,VALID,147,VALID,0.926172,
2010-09-23, 01:59:04,VALID,999.106,VALID,0,VALID,88.702,VALID,0,VALID,23.8555,VALID,106,VALID,0.788281,
2010-09-23, 02:00:04,VALID,999.105,VALID,0,VALID,88.5417,VALID,0,VALID,23.8963,VALID,104,VALID,0.781641,
2010-09-23, 02:01:04,VALID,999.098,VALID,0,VALID,88.4044,VALID,0,VALID,23.9354,VALID,126,VALID,0.919141,
2010-09-23, 02:02:04,VALID,999.116,VALID,0,VALID,88.1832,VALID,0,VALID,23.9549,VALID,75,VALID,0.870313,
2010-09-23, 02:03:04,VALID,999.115,VALID,0,VALID,87.9771,VALID,0,VALID,23.9921,VALID,76,VALID,0.790234,
2010-09-23, 02:04:04,VALID,999.123,VALID,0,VALID,87.9543,VALID,0,VALID,24.0134,VALID,74,VALID,0.96875,
2010-09-23, 02:05:04,VALID,999.148,VALID,0,VALID,88,VALID,0,VALID,23.9921,VALID,79,VALID,0.863281,
2010-09-23, 02:06:04,VALID,999.168,VALID,0,VALID,87.9085,VALID,0,VALID,24.0311,VALID,90,VALID,0.596094,
2010-09-23, 02:07:04,VALID,999.106,VALID,0,VALID,87.8932,VALID,0,VALID,24.0525,VALID,90,VALID,0.479297,
2010-09-23, 02:08:04,VALID,999.109,VALID,0,VALID,87.9314,VALID,0,VALID,24.0525,VALID,93,VALID,0.520703,
2010-09-23, 02:09:04,VALID,999.055,VALID,0,VALID,87.9695,VALID,0,VALID,24.0329,VALID,130,VALID,0.507422,
2010-09-23, 02:10:04,VALID,999.032,VALID,0,VALID,87.9085,VALID,0,VALID,24.0329,VALID,130,VALID,0.28125,
2010-09-23, 02:11:04,VALID,999.002,VALID,0,VALID,87.8627,VALID,0,VALID,24.0525,VALID,130,VALID,0.0941406,
2010-09-23, 02:12:04,VALID,998.96,VALID,0,VALID,87.8474,VALID,0,VALID,24.0525,VALID,130,VALID,0.319141,
2010-09-23, 02:13:04,VALID,998.952,VALID,0,VALID,87.794,VALID,0,VALID,24.0525,VALID,130,VALID,0.220313,
2010-09-23, 02:14:04,VALID,998.924,VALID,0,VALID,87.7177,VALID,0,VALID,24.0525,VALID,130,VALID,0.55,
2010-09-23, 02:15:04,VALID,998.874,VALID,0,VALID,87.5041,VALID,0,VALID,24.072,VALID,139,VALID,0.808594,
2010-09-23, 02:16:04,VALID,998.835,VALID,0,VALID,87.3286,VALID,0,VALID,24.0897,VALID,152,VALID,0.858203,
2010-09-23, 02:17:04,VALID,998.806,VALID,0,VALID,87.1379,VALID,0,VALID,24.1092,VALID,159,VALID,0.920703,
2010-09-23, 02:18:04,VALID,998.782,VALID,0,VALID,86.9319,VALID,0,VALID,24.15,VALID,169,VALID,0.877344,
2010-09-23, 02:19:04,VALID,998.763,VALID,0,VALID,86.8403,VALID,0,VALID,24.1696,VALID,169,VALID,0.716797,
2010-09-23, 02:20:04,VALID,998.756,VALID,0,VALID,86.5657,VALID,0,VALID,24.1891,VALID,162,VALID,0.787891,
2010-09-23, 02:21:04,VALID,998.765,VALID,0,VALID,86.5428,VALID,0,VALID,24.2086,VALID,173,VALID,0.698047,
2010-09-23, 02:22:04,VALID,998.765,VALID,0,VALID,86.4589,VALID,0,VALID,24.2476,VALID,205,VALID,0.648047,
2010-09-23, 02:23:04,VALID,998.765,VALID,0,VALID,86.1079,VALID,0,VALID,24.2866,VALID,222,VALID,0.473828,
2010-09-23, 02:24:04,VALID,998.763,VALID,0,VALID,85.5967,VALID,0,VALID,24.2866,VALID,175,VALID,0.489062,
2010-09-23, 02:25:04,VALID,998.785,VALID,0,VALID,86.1384,VALID,0,VALID,24.2866,VALID,56,VALID,0.671094,
2010-09-23, 02:26:04,VALID,998.845,VALID,0,VALID,87.0845,VALID,0,VALID,24.2476,VALID,19,VALID,0.791016,
2010-09-23, 02:27:04,VALID,998.881,VALID,0,VALID,87.8551,VALID,0,VALID,24.1696,VALID,359,VALID,0.705078,
2010-09-23, 02:28:04,VALID,998.922,VALID,0,VALID,88.5112,VALID,0,VALID,24.0543,VALID,1,VALID,1.13672,
2010-09-23, 02:29:04,VALID,998.958,VALID,0,VALID,89.1445,VALID,0,VALID,23.9354,VALID,18,VALID,1.16523,
2010-09-23, 02:30:04,VALID,998.961,VALID,0,VALID,89.5336,VALID,0,VALID,23.8573,VALID,31,VALID,1.01055,
2010-09-23, 02:31:04,VALID,998.992,VALID,0,VALID,89.7549,VALID,0,VALID,23.7988,VALID,25,VALID,0.964453,
2010-09-23, 02:32:04,VALID,998.994,VALID,0,VALID,89.8159,VALID,0,VALID,23.7793,VALID,32,VALID,1.00977,
2010-09-23, 02:33:04,VALID,998.963,VALID,0,VALID,89.8159,VALID,0,VALID,23.7597,VALID,39,VALID,0.968359,
2010-09-23, 02:34:04,VALID,998.957,VALID,0,VALID,89.7777,VALID,0,VALID,23.7597,VALID,46,VALID,0.887109,
2010-09-23, 02:35:04,VALID,998.948,VALID,0,VALID,89.7243,VALID,0,VALID,23.7597,VALID,46,VALID,0.682422,
2010-09-23, 02:36:04,VALID,998.954,VALID,0,VALID,89.6557,VALID,0,VALID,23.7793,VALID,46,VALID,0.532031,
2010-09-23, 02:37:04,VALID,998.951,VALID,0,VALID,89.5946,VALID,0,VALID,23.7988,VALID,46,VALID,0.349219,
2010-09-23, 02:38:04,VALID,998.93,VALID,0,VALID,89.5107,VALID,0,VALID,23.7775,VALID,46,VALID,0.0738281,
2010-09-23, 02:39:04,VALID,998.938,VALID,0,VALID,89.5336,VALID,0,VALID,23.8183,VALID,46,VALID,0.00351562,
2010-09-23, 02:40:04,VALID,998.934,VALID,0,VALID,89.4726,VALID,0,VALID,23.7988,VALID,46,VALID,0.414453,
2010-09-23, 02:41:04,VALID,998.984,VALID,0,VALID,89.3123,VALID,0,VALID,23.8183,VALID,134,VALID,0.667969,
2010-09-23, 02:42:04,VALID,998.951,VALID,0,VALID,88.908,VALID,0,VALID,23.8573,VALID,162,VALID,0.730469,
2010-09-23, 02:43:04,VALID,998.94,VALID,0,VALID,88.7477,VALID,0,VALID,23.9159,VALID,169,VALID,1.14414,
2010-09-23, 02:44:04,VALID,998.967,VALID,0,VALID,88.5189,VALID,0,VALID,23.9744,VALID,184,VALID,1.20117,
2010-09-23, 02:45:04,VALID,998.981,VALID,0,VALID,88.2137,VALID,0,VALID,24.0525,VALID,183,VALID,1.26367,
2010-09-23, 02:46:04,VALID,998.974,VALID,0,VALID,87.9619,VALID,0,VALID,24.1305,VALID,186,VALID,1.33672,
2010-09-23, 02:47:04,VALID,998.992,VALID,0,VALID,87.4583,VALID,0,VALID,24.2476,VALID,180,VALID,1.49727,
2010-09-23, 02:48:04,VALID,998.984,VALID,0,VALID,87.1684,VALID,0,VALID,24.3062,VALID,199,VALID,0.956641,
2010-09-23, 02:49:04,VALID,999.026,VALID,0,VALID,86.9929,VALID,0,VALID,24.3452,VALID,195,VALID,0.88125,
2010-09-23, 02:50:04,VALID,999.035,VALID,0,VALID,86.764,VALID,0,VALID,24.3452,VALID,178,VALID,0.905469,
2010-09-23, 02:51:04,VALID,999.021,VALID,0,VALID,86.2834,VALID,0,VALID,24.3433,VALID,175,VALID,1.13867,
2010-09-23, 02:52:04,VALID,999.071,VALID,0,VALID,86.0087,VALID,0,VALID,24.3647,VALID,176,VALID,0.994531,
2010-09-23, 02:53:04,VALID,999.022,VALID,0,VALID,86.1613,VALID,0,VALID,24.3842,VALID,172,VALID,1.1125,
2010-09-23, 02:54:04,VALID,999.037,VALID,0,VALID,85.8485,VALID,0,VALID,24.3452,VALID,184,VALID,1.14609,
2010-09-23, 02:55:04,VALID,999.011,VALID,0,VALID,86.6572,VALID,0,VALID,24.3647,VALID,235,VALID,0.717578,
2010-09-23, 02:56:04,VALID,998.999,VALID,0,VALID,87.4354,VALID,0,VALID,24.2866,VALID,310,VALID,0.828906,
2010-09-23, 02:57:04,VALID,999.003,VALID,0,VALID,87.8703,VALID,0,VALID,24.2086,VALID,310,VALID,0.651953,
2010-09-23, 02:58:04,VALID,999.02,VALID,0,VALID,88.2213,VALID,0,VALID,24.1482,VALID,310,VALID,0.503906,
2010-09-23, 02:59:04,VALID,999.004,VALID,0,VALID,88.4349,VALID,0,VALID,24.111,VALID,310,VALID,0.437891,
2010-09-23, 03:00:04,VALID,999.005,VALID,0,VALID,88.6562,VALID,0,VALID,24.0525,VALID,310,VALID,0.300781,
2010-09-23, 03:01:04,VALID,999.041,VALID,0,VALID,88.7706,VALID,0,VALID,24.0134,VALID,310,VALID,0.163672,
2010-09-23, 03:02:04,VALID,999.043,VALID,0,VALID,88.8317,VALID,0,VALID,23.9726,VALID,310,VALID,0,
2010-09-23, 03:03:04,VALID,999.075,VALID,0,VALID,88.8927,VALID,0,VALID,23.9549,VALID,310,VALID,0,
2010-09-23, 03:04:04,VALID,999.112,VALID,0,VALID,89.0911,VALID,0,VALID,23.9354,VALID,310,VALID,0,
2010-09-23, 03:05:04,VALID,999.078,VALID,0,VALID,89.175,VALID,0,VALID,23.9354,VALID,310,VALID,0,
2010-09-23, 03:06:04,VALID,999.1,VALID,0,VALID,89.2818,VALID,0,VALID,23.8963,VALID,310,VALID,0,
2010-09-23, 03:07:04,VALID,999.071,VALID,0,VALID,89.4039,VALID,0,VALID,23.8768,VALID,310,VALID,0,
2010-09-23, 03:08:04,VALID,999.063,VALID,0,VALID,89.4268,VALID,0,VALID,23.8573,VALID,310,VALID,0.690625,
2010-09-23, 03:09:04,VALID,999.059,VALID,0,VALID,89.5489,VALID,0,VALID,23.8573,VALID,310,VALID,0.606641,
2010-09-23, 03:10:04,VALID,999.078,VALID,0,VALID,89.854,VALID,0,VALID,23.8378,VALID,310,VALID,0.628516,
2010-09-23, 03:11:04,VALID,999.051,VALID,0,VALID,90.0448,VALID,0,VALID,23.8183,VALID,310,VALID,0.476563,
2010-09-23, 03:12:04,VALID,999.043,VALID,0,VALID,90.1745,VALID,0,VALID,23.7579,VALID,310,VALID,0.440234,
2010-09-23, 03:13:04,VALID,999.058,VALID,0,VALID,90.2203,VALID,0,VALID,23.7793,VALID,310,VALID,0.508984,
2010-09-23, 03:14:04,VALID,999.076,VALID,0,VALID,90.2508,VALID,0,VALID,23.7597,VALID,310,VALID,0.557422,
2010-09-23, 03:15:04,VALID,999.053,VALID,0,VALID,90.3271,VALID,0,VALID,23.7189,VALID,310,VALID,0.610156,
2010-09-23, 03:16:04,VALID,999.044,VALID,0,VALID,90.411,VALID,0,VALID,23.7207,VALID,8,VALID,0.85,
2010-09-23, 03:17:04,VALID,999.035,VALID,0,VALID,90.4339,VALID,0,VALID,23.7225,VALID,8,VALID,0.616016,
2010-09-23, 03:18:04,VALID,999.019,VALID,0,VALID,90.3118,VALID,0,VALID,23.7207,VALID,8,VALID,0.486719,
2010-09-23, 03:19:04,VALID,999.039,VALID,0,VALID,90.205,VALID,0,VALID,23.7207,VALID,8,VALID,0.552734,
2010-09-23, 03:20:04,VALID,998.998,VALID,0,VALID,90.1363,VALID,0,VALID,23.7402,VALID,8,VALID,0.600391,
2010-09-23, 03:21:04,VALID,999.026,VALID,0,VALID,89.999,VALID,0,VALID,23.7402,VALID,8,VALID,0.594141,
2010-09-23, 03:22:04,VALID,998.983,VALID,0,VALID,89.9074,VALID,0,VALID,23.7793,VALID,8,VALID,0.651563,
2010-09-23, 03:23:04,VALID,998.976,VALID,0,VALID,90.144,VALID,0,VALID,23.7988,VALID,8,VALID,0.603125,
2010-09-23, 03:24:04,VALID,998.964,VALID,0,VALID,90.3881,VALID,0,VALID,23.8591,VALID,8,VALID,0.6625,
2010-09-23, 03:25:04,VALID,998.936,VALID,0,VALID,90.5712,VALID,0,VALID,23.8378,VALID,8,VALID,0.583203,
2010-09-23, 03:26:04,VALID,998.973,VALID,0,VALID,90.7162,VALID,0,VALID,23.8378,VALID,8,VALID,0.654297,
2010-09-23, 03:27:04,VALID,999.033,VALID,0,VALID,90.8154,VALID,0,VALID,23.8573,VALID,8,VALID,0.680078,
2010-09-23, 03:28:04,VALID,999.035,VALID,0,VALID,90.9451,VALID,0,VALID,23.8573,VALID,8,VALID,0.667578,
2010-09-23, 03:29:04,VALID,999.096,VALID,0,VALID,91.0977,VALID,0,VALID,23.8573,VALID,60,VALID,0.879297,
2010-09-23, 03:30:04,VALID,999.045,VALID,0,VALID,91.2426,VALID,0,VALID,23.8786,VALID,60,VALID,0.810156,
2010-09-23, 03:31:04,VALID,999.085,VALID,0,VALID,91.3723,VALID,0,VALID,23.8573,VALID,60,VALID,0.814453,
2010-09-23, 03:32:04,VALID,999.036,VALID,0,VALID,91.4868,VALID,0,VALID,23.8982,VALID,60,VALID,1.00937,
2010-09-23, 03:33:04,VALID,999.036,VALID,0,VALID,91.5783,VALID,0,VALID,23.8768,VALID,60,VALID,0.884375,
2010-09-23, 03:34:04,VALID,999.035,VALID,0,VALID,91.6241,VALID,0,VALID,23.875,VALID,60,VALID,0.766406,
2010-09-23, 03:35:04,VALID,999.038,VALID,0,VALID,91.6623,VALID,0,VALID,23.8768,VALID,36,VALID,1.00859,
2010-09-23, 03:36:04,VALID,999.025,VALID,0,VALID,91.6623,VALID,0,VALID,23.8573,VALID,34,VALID,0.725,
2010-09-23, 03:37:04,VALID,999.034,VALID,0,VALID,91.6928,VALID,0,VALID,23.8573,VALID,34,VALID,0.901953,
2010-09-23, 03:38:04,VALID,999.016,VALID,0,VALID,91.7385,VALID,0,VALID,23.8378,VALID,34,VALID,0.817578,
2010-09-23, 03:39:04,VALID,999.021,VALID,0,VALID,91.7538,VALID,0,VALID,23.7988,VALID,34,VALID,0.407422,
2010-09-23, 03:40:04,VALID,999.043,VALID,0,VALID,91.8072,VALID,0,VALID,23.7793,VALID,34,VALID,0.303516,
2010-09-23, 03:41:04,VALID,999.09,VALID,0,VALID,91.8301,VALID,0,VALID,23.7793,VALID,34,VALID,0.319141,
2010-09-23, 03:42:04,VALID,999.126,VALID,0,VALID,91.853,VALID,0,VALID,23.7597,VALID,34,VALID,0.537109,
2010-09-23, 03:43:04,VALID,999.181,VALID,0,VALID,91.8301,VALID,0,VALID,23.7402,VALID,34,VALID,0.592969,
2010-09-23, 03:44:04,VALID,999.211,VALID,0,VALID,91.8454,VALID,0,VALID,23.7207,VALID,62,VALID,0.795313,
2010-09-23, 03:45:04,VALID,999.241,VALID,0,VALID,91.8148,VALID,0,VALID,23.7207,VALID,62,VALID,0.706641,
2010-09-23, 03:46:04,VALID,999.289,VALID,0,VALID,91.7233,VALID,0,VALID,23.7402,VALID,62,VALID,0.684766,